DateTimeUTC,F1_A11,F1_S11,BsB_S11,BsG_S11,BsR_S11,BbsB_S11,BbsG_S11,BbsR_S11,BaB_A11,BaG_A11,BaR_A11,Tu_S11,T_S11,Uu_S11,U_S11,P_S11,T1_A11
2021-09-27T01:00:00Z,00000200,21000000,,,,,,,0000.30,0000.08,-000.03,16.3,23.5,,00.0,0671.1,30.9
2021-09-27T01:01:00Z,00000200,21000000,,,,,,,0000.27,0000.16,-000.01,16.3,23.6,,00.0,0671.1,30.8
2021-09-27T01:02:00Z,00000200,21000000,,,,,,,-000.18,0000.04,0000.02,16.4,23.6,,00.0,0671.1,30.9
2021-09-27T01:03:00Z,00000200,61000000,,,,,,,0014.71,0013.41,0010.58,16.4,23.6,,00.0,0671.1,30.9
2021-09-27T01:04:00Z,00000200,41000000,0004.90,0003.41,0002.01,0000.96,0000.40,0000.47,0012.74,0011.42,0009.13,16.7,23.5,,00.0,0672.0,30.9
2021-09-27T01:05:00Z,00000200,01000000,0005.03,0003.51,0002.30,0000.10,0000.79,0000.55,0014.09,0013.40,0010.43,16.8,23.4,,00.0,0672.1,30.9
2021-09-27T01:06:00Z,00000200,01000000,0004.52,0002.70,0001.69,0000.98,0000.66,0000.52,0004.45,0004.00,0003.35,16.7,23.4,,00.0,0672.1,30.9
2021-09-27T01:07:00Z,00000200,01000000,0004.15,0002.80,0001.41,0000.20,0000.52,0000.38,0001.53,0001.24,0000.83,16.6,23.4,,00.0,0672.1,30.8
2021-09-27T01:08:00Z,00000200,01000000,0003.65,0002.42,0001.80,0000.48,0000.36,0000.34,0000.56,0000.38,0000.53,16.6,23.4,,00.0,0672.1,30.8
2021-09-27T01:09:00Z,00000200,01000000,0003.64,0002.62,0001.33,0000.32,0000.46,-000.01,0000.99,0001.17,0000.77,16.5,23.3,,00.0,0672.1,30.8
2021-09-27T01:10:00Z,00000200,01000000,0004.23,0002.42,0001.72,0000.43,0000.73,0000.69,0000.90,0000.78,0000.65,16.4,23.3,,00.0,0672.1,30.8
2021-09-27T01:11:00Z,00000200,01000000,0004.53,0002.59,0001.54,0000.81,0000.56,0000.23,0001.29,0000.37,0000.63,16.4,23.2,,00.0,0672.0,30.8
2021-09-27T01:12:00Z,00000200,01000000,0004.65,0002.29,0001.76,0000.66,0000.25,0000.46,0000.97,0001.23,0000.59,16.4,23.2,,00.0,0672.1,30.8
2021-09-27T01:13:00Z,00000200,01000000,0003.63,0002.29,0001.19,0001.48,0000.50,0000.17,0000.75,0000.85,0000.59,16.5,23.2,,00.0,0672.0,30.8
2021-09-27T01:14:00Z,00000200,01000000,0003.40,0002.73,0001.42,0001.09,0000.35,0000.52,0001.02,0001.17,0000.81,16.5,23.2,,00.0,0672.1,30.8
2021-09-27T01:15:00Z,00000200,01000000,0003.58,0002.32,0001.52,0000.63,0000.65,0000.20,0000.66,0000.79,0000.44,16.6,23.2,,00.0,0672.1,30.8
2021-09-27T01:16:00Z,00000200,01000000,0003.83,0002.41,0001.45,0000.31,0000.39,0000.28,0000.89,0000.61,0000.87,16.7,23.3,,00.0,0672.1,30.9
2021-09-27T01:17:00Z,00000200,01000000,0003.80,0002.34,0001.45,-000.10,0000.54,0000.16,0000.73,0000.92,0000.39,16.7,23.3,,00.0,0672.1,30.9
2021-09-27T01:18:00Z,00000200,01000000,0003.06,0002.12,0001.20,0000.28,0000.05,0000.48,0000.62,0000.21,0000.74,16.8,23.3,,00.0,0672.1,30.9
2021-09-27T01:19:00Z,00000200,01000000,0004.11,0002.55,0001.33,0000.36,0000.47,0000.44,0000.88,0000.78,-000.08,16.8,23.4,,00.0,0672.1,30.9
2021-09-27T01:20:00Z,00000200,01000000,0002.87,0002.26,0001.50,0000.89,0000.53,0000.43,0000.54,0000.53,0000.43,16.7,23.3,,00.0,0672.1,30.9
2021-09-27T01:21:00Z,00000200,01000000,0003.34,0001.97,0001.40,0001.28,-000.08,0000.09,0000.66,0000.70,0000.39,16.7,23.3,,00.0,0672.0,30.8
2021-09-27T01:22:00Z,00000200,01000000,0002.42,0001.82,0001.17,0000.12,0000.40,0000.25,0000.77,0000.55,0000.83,16.6,23.3,,00.0,0672.0,30.8
2021-09-27T01:23:00Z,00000200,01000000,0003.11,0002.08,0001.25,0000.86,0000.25,0000.25,0000.65,0000.77,0000.55,16.5,23.2,,00.0,0672.0,30.8
2021-09-27T01:24:00Z,00000200,01000000,0003.39,0001.91,0000.86,0000.37,0000.47,0000.27,0000.47,0000.08,0000.04,16.5,23.2,,00.0,0672.0,30.8
2021-09-27T01:25:00Z,00000200,01000000,0003.00,0001.89,0001.15,0000.29,0000.04,0000.35,0000.84,0000.41,0000.64,16.4,23.2,,00.0,0671.9,30.8
2021-09-27T01:26:00Z,00000200,01000000,0001.95,0001.89,0001.30,0000.72,0000.19,0000.33,0000.65,0001.08,-000.12,16.4,23.1,,00.0,0671.9,30.8
2021-09-27T01:27:00Z,00000200,01000000,0003.25,0001.63,0001.01,-000.24,0000.31,-000.05,0000.89,0000.99,0000.92,16.4,23.1,,00.0,0671.9,30.8
2021-09-27T01:28:00Z,00000200,01000000,0002.41,0001.92,0000.86,0000.45,0000.55,0000.27,0000.93,0000.64,0000.37,16.4,23.1,,00.0,0671.9,30.8
2021-09-27T01:29:00Z,00000200,01000000,0002.93,0001.93,0001.15,0000.90,0000.56,0000.41,0000.42,0000.42,0000.88,16.5,23.1,,00.0,0671.9,30.8
2021-09-27T01:30:00Z,00000200,01000000,0003.60,0001.57,0001.13,0000.74,0000.19,0000.28,0000.92,0000.97,0000.60,16.5,23.1,,00.0,0671.9,30.8
2021-09-27T01:31:00Z,00000200,01000000,0002.32,0001.84,0001.29,0000.68,0000.29,0000.28,0000.52,0000.21,0000.17,16.6,23.2,,00.0,0671.9,30.8
2021-09-27T01:32:00Z,00000200,01000000,0003.06,0001.81,0001.50,0000.48,0000.32,0000.54,0000.50,0001.02,0000.50,16.6,23.2,,00.0,0672.0,30.8
2021-09-27T01:33:00Z,00000200,01000000,0002.79,0001.94,0001.08,0000.01,0000.32,0000.16,0000.88,0000.18,0000.56,16.7,23.2,,00.0,0672.0,30.9
2021-09-27T01:34:00Z,00000200,01000000,0002.91,0002.06,0001.13,-000.19,-000.06,0000.20,0001.00,0000.77,0000.26,16.8,23.3,,00.0,0672.0,30.9
2021-09-27T01:35:00Z,00000200,01000000,0003.68,0001.79,0001.32,0000.62,0000.24,0000.21,0000.31,0000.65,0000.37,16.8,23.3,,00.0,0672.0,30.9
2021-09-27T01:36:00Z,00000200,01000000,0002.94,0001.86,0001.01,-000.04,0000.16,-000.04,0000.32,0000.44,0000.36,16.8,23.3,,00.0,0672.0,30.9
2021-09-27T01:37:00Z,00000200,01000000,0003.79,0002.05,0001.13,0000.40,0000.68,0000.37,0000.44,0000.04,0000.31,16.7,23.3,,00.0,0672.0,30.8
2021-09-27T01:38:00Z,00000200,01000000,0003.61,0001.93,0001.14,-000.01,0000.37,0000.22,0000.47,0000.77,0000.30,16.7,23.2,,00.0,0671.9,30.8
2021-09-27T01:39:00Z,00000200,01000000,0002.66,0002.33,0000.67,0000.74,0000.20,0000.24,0000.68,0000.85,0000.78,16.6,23.2,,00.0,0671.9,30.8
2021-09-27T01:40:00Z,00000200,01000000,0002.96,0001.76,0001.18,0000.49,0000.37,0000.19,0000.74,0000.03,-000.12,16.5,23.2,,00.0,0671.9,30.8
2021-09-27T01:41:00Z,00000200,01000000,0002.85,0001.54,0001.10,0000.39,-000.05,0000.07,0000.59,0000.74,0000.86,16.5,23.1,,00.0,0671.9,30.8
2021-09-27T01:42:00Z,00000200,01000000,0002.57,0001.71,0001.14,0000.39,0000.33,0000.19,0000.82,0000.87,0000.44,16.5,23.1,,00.0,0671.9,30.8
2021-09-27T01:43:00Z,00000200,01000000,0002.79,0001.76,0001.35,0000.98,0000.27,0000.31,0000.57,0000.66,0000.34,16.5,23.1,,00.0,0671.9,30.8
2021-09-27T01:44:00Z,00000200,01000000,0003.34,0001.80,0000.99,0000.21,0000.39,0000.35,0000.51,0000.24,0000.70,16.6,23.1,,00.0,0671.9,30.8
2021-09-27T01:45:00Z,00000200,01000000,0002.49,0001.85,0001.29,0000.02,0000.15,0000.06,0000.63,0000.58,0000.13,16.6,23.2,,00.0,0671.9,30.8
2021-09-27T01:46:00Z,00000200,01000000,0002.05,0001.60,0001.00,0000.20,0000.35,-000.01,0000.34,0000.74,0000.36,16.7,23.2,,00.0,0671.9,30.9
2021-09-27T01:47:00Z,00000200,01000000,0002.67,0001.66,0001.40,0000.50,0000.48,0000.48,0000.68,0000.35,0000.72,16.7,23.3,,00.0,0671.9,30.9
2021-09-27T01:48:00Z,00000200,01000000,0002.71,0002.10,0001.11,0000.83,0000.10,0000.06,0000.60,0000.55,0000.27,16.8,23.3,,00.0,0671.9,30.9
2021-09-27T01:49:00Z,00000200,01000000,0002.06,0001.55,0001.03,-000.28,0000.22,0000.07,0000.46,0000.49,0000.37,16.9,23.3,,00.0,0671.9,30.9
2021-09-27T01:50:00Z,00000200,01000000,0002.64,0002.03,0001.02,0000.78,0000.01,0000.26,0000.61,0000.36,0000.25,16.9,23.3,,00.0,0672.0,30.9
2021-09-27T01:51:00Z,00000200,01000000,0003.12,0001.71,0001.01,0001.24,0000.40,0000.04,0000.51,0000.15,0000.08,16.8,23.3,,00.0,0671.9,30.9
2021-09-27T01:52:00Z,00000200,01000000,0002.47,0001.77,0000.90,0000.74,0000.00,0000.56,0000.11,0000.71,0000.63,16.8,23.3,,00.0,0672.0,30.9
2021-09-27T01:53:00Z,00000200,01000000,0002.45,0001.85,0001.34,0000.72,0000.19,0000.36,0000.75,0000.26,0000.30,16.7,23.3,,00.0,0671.9,30.8
2021-09-27T01:54:00Z,00000200,01000000,0003.31,0001.57,0001.29,0000.85,0000.11,0000.28,0000.39,0000.44,0000.19,16.6,23.2,,00.0,0671.9,30.8
2021-09-27T01:55:00Z,00000200,01000000,0002.67,0001.82,0001.03,0000.14,0000.33,0000.61,0000.88,0000.69,0000.60,16.6,23.2,,00.0,0671.9,30.8
2021-09-27T01:56:00Z,00000200,01000000,0003.15,0001.48,0001.16,0000.82,-000.07,0000.36,0000.60,0000.55,0000.77,16.5,23.2,,00.0,0671.9,30.8
2021-09-27T01:57:00Z,00000200,41000000,,,,,,,0000.33,0000.46,-000.21,16.6,23.2,,00.0,0671.9,30.8
2021-09-27T01:58:00Z,00000200,61000000,,,,,,,-000.14,-000.49,0000.06,16.2,23.3,,00.0,0670.9,30.8
2021-09-27T01:59:00Z,00000200,21000000,,,,,,,0000.00,0000.19,-000.07,16.2,23.4,,00.0,0670.9,30.8
